{"data":{"norad_id":45163,"epoch":"2026-05-25T04:05:18.881088Z","epoch_age_seconds":70801,"freshness":"FRESH","line1":"1 45163U 20008AJ  26145.17035742  .00000455  00000+0  12682-2 0  9990","line2":"2 45163  87.8858  40.8462 0001435  72.5809 287.5475 13.10370192305174","mean_motion":13.10370192,"eccentricity":0.0001435,"inclination_deg":87.8858,"raan_deg":40.8462,"arg_perigee_deg":72.5809,"mean_anomaly_deg":287.5475,"bstar":0.0012682,"rev_number":30517,"period_min":109.89260964508,"perigee_km":1220.6367198556,"apogee_km":1222.8178809099,"semimajor_km":7599.8643003827,"source":"CELESTRAK","updated_at":"2026-05-25T13:38:22.340162Z"}}